EW4169 Weather Reports


time (UTC)temp
C
wind
direction
speed
KPH
gust
KPH
rain 1hr
cm
rain 24hr
cm
rain mn
cm
humidity
%
barometer
mb
20260507124600 7 249 1.6 8.0 0.00 0.25 0.00 64 1012.5
20260507124508 7 262 3.2 9.7 0.00 0.25 0.00 64 1012.5
20260507123050 7 280 8.0 12.9 0.00 0.25 0.00 66 1012.5
20260507121512 6 279 9.7 12.9 0.00 0.25 0.00 66 1012.5
20260507120105 6 288 4.8 12.9 0.00 0.48 0.00 71 1012.3
20260507120020 6 293 4.8 12.9 0.00 0.48 0.00 70 1012.3
20260507114504 6 301 4.8 11.3 0.00 0.48 0.00 72 1012.1
20260507111540 5 282 3.2 6.4 0.00 0.48 0.00 80 1012.0
20260507110104 4 281 0.0 1.6 0.00 0.53 0.00 83 1011.9
20260507104538 2 281 1.6 4.8 0.00 0.53 0.00 87 1011.7
20260507103003 1 288 0.0 1.6 0.00 0.53 0.00 90 1011.5
20260507101524 1 288 3.2 3.2 0.00 0.53 0.00 90 1011.6
20260507100112 1 288 1.6 3.2 0.00 0.56 0.00 90 1011.5
20260507100002 1 288 1.6 3.2 0.00 0.56 0.00 90 1011.5
20260507094524 1 288 0.0 1.6 0.00 0.56 0.00 90 1011.4
20260507093100 1 288 0.0 4.8 0.00 0.56 0.00 87 1011.4
20260507093002 1 288 0.0 4.8 0.00 0.56 0.00 87 1011.4
20260507091540 2 288 0.0 4.8 0.00 0.56 0.00 86 1011.3
20260507090057 2 288 1.6 4.8 0.00 0.56 0.00 84 1011.3
20260507084539 3 288 0.0 3.2 0.00 0.56 0.00 79 1011.2
20260507083056 4 288 1.6 3.2 0.00 0.56 0.00 76 1011.3
20260507081544 5 288 0.0 1.6 0.00 0.56 0.00 70 1011.3
20260507080054 6 288 0.0 4.8 0.00 0.56 0.00 67 1011.2
20260507074546 6 288 1.6 4.8 0.00 0.56 0.00 65 1011.2
20260507073020 6 293 1.6 9.7 0.00 0.56 0.00 63 1011.3
20260507071540 7 279 3.2 12.9 0.00 0.56 0.00 62 1011.2
20260507070014 7 279 3.2 12.9 0.00 0.56 0.00 62 1011.0
20260507064544 7 259 4.8 11.3 0.00 0.56 0.00 63 1011.1
20260507063019 7 276 3.2 9.7 0.00 0.56 0.00 65 1011.3
20260507061543 7 257 1.6 6.4 0.00 0.56 0.00 63 1011.3
20260507060016 7 279 4.8 11.3 0.00 0.56 0.00 61 1011.6
20260507054537 7 288 3.2 11.3 0.00 0.56 0.00 63 1011.5
20260507053012 7 276 3.2 6.4 0.00 0.56 0.00 65 1011.4
20260507051532 7 265 9.7 14.5 0.00 0.56 0.00 62 1011.6
20260507050012 7 311 6.4 11.3 0.00 0.56 0.00 61 1011.5
20260507044536 7 293 6.4 11.3 0.00 0.56 0.00 58 1011.5
20260507043016 8 272 0.0 9.7 0.00 0.56 0.00 58 1011.3
20260507041547 8 236 3.2 11.3 0.00 0.56 0.00 55 1011.4
20260507040010 8 294 8.0 16.1 0.00 0.56 0.56 58 1011.0
20260507034557 8 295 8.0 12.9 0.00 0.56 0.56 55 1011.3
20260507033106 8 278 3.2 11.3 0.00 0.56 0.56 58 1011.3
20260507031520 8 281 4.8 14.5 0.00 0.56 0.56 58 1011.1
20260507030016 8 286 6.4 14.5 0.00 0.56 0.56 67 1010.8
20260507024555 8 308 4.8 12.9 0.00 0.56 0.56 69 1010.7
20260507023032 9 309 8.0 20.9 0.00 0.56 0.56 68 1010.6
20260507021558 9 285 11.3 27.4 0.00 0.56 0.56 68 1010.4
20260507020034 9 314 11.3 19.3 0.00 0.56 0.56 79 1010.3
20260507014510 10 275 6.4 9.7 0.00 0.56 0.56 81 1010.5
20260507013058 10 250 4.8 11.3 0.00 0.56 0.56 81 1010.5
20260507011508 10 257 3.2 4.8 0.00 0.56 0.56 84 1010.6
20260507010052 10 279 0.0 6.4 0.00 0.56 0.56 84 1010.5
20260507004506 10 267 3.2 4.8 0.00 0.56 0.56 84 1010.3
20260507003026 10 277 1.6 6.4 0.00 0.56 0.56 84 1010.4
20260507001612 10 287 4.8 8.0 0.00 0.56 0.56 84 1009.8
20260507001501 10 288 4.8 8.0 0.00 0.56 0.56 83 1009.8
20260507000042 10 257 3.2 9.7 0.00 0.56 0.56 83 1009.7
20260506234608 10 291 3.2 17.7 0.00 0.56 0.56 83 1009.3
20260506234502 10 291 4.8 17.7 0.00 0.56 0.56 83 1009.3
20260506233042 10 270 6.4 12.9 0.00 0.56 0.56 83 1009.0
20260506231510 10 290 8.0 14.5 0.00 0.56 0.56 82 1008.8
20260506230044 10 278 3.2 11.3 0.00 0.56 0.56 83 1008.7
20260506224620 10 274 8.0 17.7 0.00 0.56 0.56 83 1009.0
20260506224509 10 276 8.0 22.5 0.00 0.56 0.56 84 1009.0
20260506223038 10 288 11.3 25.7 0.00 0.56 0.56 85 1008.9
20260506221514 11 295 12.9 22.5 0.00 0.56 0.56 84 1008.2
20260506220036 11 278 8.0 12.9 0.00 0.56 0.56 83 1008.1
20260506214514 11 280 9.7 19.3 0.00 0.56 0.56 83 1008.1
20260506213046 11 302 9.7 22.5 0.00 0.56 0.56 83 1007.7
20260506211600 12 272 8.0 19.3 0.00 0.56 0.56 85 1007.5
20260506211507 12 287 11.3 19.3 0.00 0.56 0.56 84 1007.5
20260506210036 12 287 11.3 16.1 0.00 0.58 0.56 84 1007.0
20260506204509 12 240 9.7 17.7 0.00 0.58 0.56 86 1006.9
20260506203030 12 231 9.7 24.1 0.00 0.58 0.56 87 1006.8
20260506201513 12 274 16.1 25.7 0.00 0.58 0.56 91 1006.7
20260506200024 12 241 6.4 16.1 0.00 0.58 0.56 96 1006.6
20260506194601 12 198 8.0 17.7 0.00 0.58 0.56 97 1006.3
20260506194502 12 229 9.7 17.7 0.00 0.58 0.56 97 1006.3
20260506193024 11 225 11.3 24.1 0.00 0.58 0.56 97 1006.2
20260506191558 12 245 16.1 27.4 0.00 0.58 0.56 97 1006.1
20260506190022 13 258 6.4 17.7 0.00 0.58 0.56 97 1005.8
20260506184556 13 269 9.7 16.1 0.00 0.58 0.56 97 1005.6
20260506183101 13 255 6.4 12.9 0.00 0.58 0.56 98 1005.6
20260506181522 13 245 6.4 12.9 0.03 0.58 0.56 98 1005.5
20260506180042 13 269 6.4 12.9 0.03 0.58 0.56 98 1005.5
20260506174518 13 247 11.3 16.1 0.05 0.58 0.56 98 1005.4
20260506173047 13 276 6.4 17.7 0.05 0.58 0.56 98 1005.4
20260506171523 13 212 4.8 9.7 0.03 0.56 0.53 98 1005.3
20260506170006 13 238 1.6 8.0 0.03 0.53 0.53 98 1005.0
20260506164522 13 163 0.0 8.0 0.03 0.53 0.51 98 1004.9
20260506163016 13 219 1.6 8.0 0.03 0.53 0.51 98 1004.9
20260506161555 13 132 3.2 9.7 0.05 0.53 0.51 98 1005.0
20260506160031 13 187 6.4 12.9 0.03 0.51 0.48 98 1004.9
20260506154554 13 140 3.2 8.0 0.03 0.51 0.48 98 1004.9
20260506153019 13 199 0.0 1.6 0.03 0.51 0.48 98 1004.8
20260506151554 12 224 0.0 1.6 0.00 0.48 0.46 98 1004.8
20260506150014 12 169 0.0 0.0 0.00 0.48 0.46 98 1004.7
20260506144551 12 131 0.0 0.0 0.00 0.48 0.46 98 1004.5
20260506143016 12 229 0.0 1.6 0.03 0.48 0.46 97 1004.5
20260506141552 12 202 0.0 4.8 0.05 0.48 0.46 97 1004.5
20260506140015 12 153 0.0 4.8 0.08 0.48 0.46 97 1004.5
20260506134549 12 152 3.2 8.0 0.08 0.48 0.46 97 1004.3
20260506133013 12 157 4.8 6.4 0.08 0.46 0.43 97 1004.5
20260506131600 12 198 0.0 6.4 0.05 0.43 0.41 97 1004.7
20260506130039 12 150 1.6 3.2 0.08 0.41 0.38 97 1004.7